User: anonymous   Login
Location: Columbia
(38.9520°N, 92.3340°W)
Time: 15:46:26
(UTC-05:00)
Language:

Iridium 52 - Orbit

View from above orbital plane
View from above orbital plane
View from above satellite
View from above satellite

Ground track
Ground track

The orbit data is extracted from the following two-line orbital elements,

1 25169U 98010A   15108.19340661  .00000294  00000-0  98084-4 0  9994
2 25169 086.3948 321.0009 0002058 089.1097 049.5851 14.34222810898405
Epoch (UTC): 18 April 2015 04:38:30
Eccentricity: 0.0002058
inclination: 86.3948°
perigee height: 776 km
apogee height: 779 km
right ascension of ascending node: 321.0009°
argument of perigee: 89.1097°
revolutions per day: 14.34222810
mean anomaly at epoch: 49.5851°
orbit number at epoch: 89840

The dashed part of the orbit path shows where the satellite is in the earth's shadow,  

DLR